This demonstration page uses our WeatherBlox Daily Observations layout. Learn more.

Left ArrowRight Arrow

Hourly Observations for November 12, 2019

Temp ( °F °C ) Dew Point ( °F °C ) Humidity (%) Winds ( mph kmh ) Pressure ( in mb ) Visibility ( mi km ) Precip ( " mm )
12:56 am 00:56 Clear 4 -15.6 -1 -18.3 80 80 Calm 30.75 1041 10 16 0.00 0.00
1:56 am 01:56 Clear 6 -14.4 1 -17.2 79 79 SW 3 6 30.71 1040 10 16 0.00 0.00
2:56 am 02:56 Clear 5 -15 1 -17.2 83 83 SW 7 11 30.69 1039 10 16 0.00 0.00
3:56 am 03:56 Clear 5 -15 1 -17.2 83 83 SW 7 11 30.67 1039 10 16 0.00 0.00
4:56 am 04:56 Clear 2 -16.7 -1 -18.3 88 88 SSW 10 17 30.65 1038 10 16 0.00 0.00
5:56 am 05:56 Clear 4 -15.6 0 -17.8 83 83 SSW 9 15 30.62 1037 10 16 0.00 0.00
6:56 am 06:56 Clear 3 -16.1 0 -17.8 87 87 SSW 8 13 30.60 1036 10 16 0.00 0.00
7:56 am 07:56 Sunny 10 -12.2 5 -15 80 80 SSW 13 20 30.55 1035 10 16 0.00 0.00
8:56 am 08:56 Sunny 15 -9.4 9 -12.8 77 77 SSW 15 24 30.53 1034 10 16 0.00 0.00
9:56 am 09:56 Sunny 19 -7.2 13 -10.6 77 77 SSW 20 31 30.49 1033 10 16 0.00 0.00
10:56 am 10:56 Sunny 24 -4.4 16 -8.9 71 71 SSW 21 33 30.43 1031 10 16 0.00 0.00
11:56 am 11:56 Sunny 28 -2.2 18 -7.8 66 66 SSW 24 39 30.36 1028 10 16 0.00 0.00
12:56 pm 12:56 Sunny 31 -0.6 21 -6.1 67 67 SSW 25 41 30.29 1026 10 16 0.00 0.00
1:56 pm 13:56 Sunny 35 1.7 21 -6.1 57 57 SSW 24 39 30.24 1024 10 16 0.00 0.00
2:56 pm 14:56 Sunny 37 2.8 20 -6.7 50 50 S 22 35 30.20 1023 10 16 0.00 0.00
3:56 pm 15:56 Sunny 38 3.3 18 -7.8 44 44 S 18 30 30.16 1022 10 16 0.00 0.00
4:56 pm 16:56 Sunny 36 2.2 17 -8.3 46 46 S 14 22 30.15 1021 10 16 0.00 0.00
5:56 pm 17:56 Clear 32 0 17 -8.3 54 54 S 15 24 30.13 1020 10 16 0.00 0.00
6:56 pm 18:56 Clear 32 0 14 -10 47 47 S 21 33 30.10 1019 10 16 0.00 0.00
7:56 pm 19:56 Clear 31 -0.6 16 -8.9 54 54 SSW 21 33 30.07 1018 10 16 0.00 0.00
8:56 pm 20:56 Clear 31 -0.6 15 -9.4 52 52 SSW 21 33 30.04 1017 10 16 0.00 0.00
9:56 pm 21:56 Clear 29 -1.7 14 -10 54 54 SSW 21 33 30.02 1017 10 16 0.00 0.00
10:56 pm 22:56 Clear 28 -2.2 14 -10 56 56 SSW 16 26 29.99 1016 10 16 0.00 0.00
11:56 pm 23:56 Clear 29 -1.7 15 -9.4 56 56 SSW 13 20 29.96 1015 10 16 0.00 0.00

Powered by AerisWeather